This is the latest recevied weather packets stored in our database for station/object KB9HUO. If no packets are shown the sender has not sent any weather packets the latest 10 day(s).
| Time | Temp. | Humidity | Pressure | Rain* | Wind** | Luminosity | Snow |
|---|---|---|---|---|---|---|---|
| 1778188623 | 16.67° C | 37% | 1015.3 hPa | 0 mm | - | 45 W/m² | - |
| 1778188318 | 17.22° C | 35% | 1015.4 hPa | 0 mm | - | 36 W/m² | - |
| 1778188016 | 17.78° C | 39% | 1015.4 hPa | 0 mm | - | 57 W/m² | - |
| 1778187712 | 17.78° C | 39% | 1015.3 hPa | 0 mm | - | 59 W/m² | - |
| 1778187409 | 17.78° C | 36% | 1015.5 hPa | 0 mm | - | 63 W/m² | - |
| 1778187106 | 17.78° C | 37% | 1015.7 hPa | 0 mm | - | 84 W/m² | - |
| 1778186802 | 17.78° C | 35% | 1015.6 hPa | 0 mm | - | 101 W/m² | - |
| 1778186500 | 17.22° C | 36% | 1015.7 hPa | 0 mm | - | 78 W/m² | - |
| 1778186198 | 17.22° C | 37% | 1015.4 hPa | 0 mm | - | 77 W/m² | - |
| 1778185895 | 17.22° C | 35% | 1015.5 hPa | 0 mm | - | 55 W/m² | - |
| 1778185591 | 17.22° C | 36% | 1015.5 hPa | 0 mm | - | 56 W/m² | - |
| 1778185287 | 17.78° C | 36% | 1015.4 hPa | 0 mm | - | 51 W/m² | - |
| 1778184982 | 17.78° C | 37% | 1015.5 hPa | 0 mm | - | 61 W/m² | - |
| 1778184679 | 17.78° C | 39% | 1015.6 hPa | 0 mm | - | 63 W/m² | - |
| 1778184375 | 17.22° C | 37% | 1015.7 hPa | 0 mm | - | 206 W/m² | - |
| 1778184071 | 17.22° C | 40% | 1015.7 hPa | 0 mm | - | 69 W/m² | - |
| 1778183769 | 17.22° C | 35% | 1015.8 hPa | 0 mm | - | 61 W/m² | - |
| 1778183466 | 16.67° C | 42% | 1015.9 hPa | 0 mm | - | 190 W/m² | - |
| 1778183162 | 16.67° C | 37% | 1015.9 hPa | 0 mm | - | 74 W/m² | - |
| 1778182858 | 17.22° C | 35% | 1016 hPa | 0 mm | - | 57 W/m² | - |
| 1778182555 | 17.22° C | 38% | 1016.1 hPa | 0 mm | - | 59 W/m² | - |
| 1778182252 | 16.67° C | 35% | 1016 hPa | 0 mm | - | 59 W/m² | - |
| 1778181948 | 17.22° C | 36% | 1016.1 hPa | 0 mm | - | 119 W/m² | - |
| 1778181645 | 16.67° C | 36% | 1016.1 hPa | 0 mm | - | 49 W/m² | - |
| 1778181340 | 16.67° C | 34% | 1016.1 hPa | 0 mm | - | 362 W/m² | - |
* Rain latest hour (hover to see other rain measurements)
** Current wind speed in m/s (hover to see current wind gust speed)